Location: Aytr�
(46.1357°N, 1.1145°W)
Time: 23:10:15
(UTC+00:00)

Nauka - Pass Details

Date: 26 September 2021
Orbit: 418 x 423 km, 51.6° (Epoch: 14 October)

Event Time Altitude Azimuth Distance (km) Brightness Sun altitude
Rises 20:31:37 0° 296° (WNW) 2,367 ? -27.1°
Reaches altitude 10° 20:33:45 10° 302° (WNW) 1,503 ? -27.4°
Enters shadow 20:35:06 21° 311° (NW) 992 ? -27.6°
